Location: Carbonear
(47.7333°N, 53.2500°W)
Time: 20:56:18
(UTC+00:00)

BEESAT - Pass Details

Date: 08 December 2022
Orbit: 697 x 707 km, 98.5° (Epoch: 07 February)

Event Time Altitude Azimuth Distance (km) Brightness Sun altitude
Rises 10:17:55 0° 132° (SE) 3,091 ? -8.3°
Reaches altitude 10° 10:20:25 10° 120° (ESE) 2,178 ? -7.9°
Maximum altitude 10:24:25 27° 63° (ENE) 1,340 ? -7.3°
Drops below altitude 10° 10:28:26 10° 6° (N) 2,193 ? -6.7°
Sets 10:30:58 0° 355° (N) 3,117 ? -6.3°
